Regional Weather Roundup
Issued by NWS

Home | Current Version | Previous Version | Graphics & Text | Print | Product List | Glossary On
Versions: 1 2 3 4 5 6 7 8 9 10 11 12 13 14 15 16 17 18 19 20 21 22 23 24 25 26 27 28 29 30 31 32 33 34 35 36 37 38 39 40 41 42 43 44 45 46 47 48 49 50
000
ASUS43 KIND 250659
RWRIN

WEATHER ROUNDUP FOR INDIANA
NATIONAL WEATHER SERVICE INDIANAPOLIS IN
300 AM EDT SUN JUN 25 2017

NOTE: "FAIR" INDICATES FEW OR NO CLOUDS BELOW 12,000 FEET WITH NO
SIGNIFICANT WEATHER AND/OR OBSTRUCTIONS TO VISIBILITY.

* - STATION DOES NOT REPORT WEATHER SUCH AS PRECIPITATION OR FOG.

+ - STATION NOT QUALITY CONTROLLED BY THE NATIONAL WEATHER SERVICE.
    USE DATA WITH CAUTION...ESPECIALLY DEWPOINT AND RELATIVE
    HUMIDITY OBSERVATIONS.

INZ001>003-010>013-019-020-250800-
NORTHWEST INDIANA

CITY           SKY/WX    TMP DP  RH WIND       PRES   REMARKS
GARY /AIRPORT/ CLOUDY    62  45  53 SW3       30.05F
KNOX *+        MOCLDY    55  37  50 SW5       30.05F
MICHIGAN CITY+ CLOUDY    57  48  72 SW5       30.04F
MONTICELLO +   CLEAR     57  49  74 SW7       30.07F

$$

LMZ046-743>745-250800-
SOUTHERN LAKE MICHIGAN

STATION/POSITION TIME  TEMP    WIND        PRES    WAVE
                       AIR SEA DIR/SP/G            HT
                 (UTC) (F)     (DEG/KT/KT) (MB)    (FT)
BURNS HARBOR     0640   65     240/ 11/ 13 1017.9F
MICHIGAN CITY    0630   63     210/ 10/ 11   N/A
5NW MICH CITY    0650   65 67  240/ 12/ 16   N/A     2

$$

INZ004-005-014>016-021>024-250800-
NORTH CENTRAL INDIANA

CITY           SKY/WX    TMP DP  RH WIND       PRES   REMARKS
GOSHEN         CLEAR     55  46  71 SW9       30.04F
SOUTH BEND     PTCLDY    56  48  74 SW7       30.04F

$$

INZ006>009-017-018-025>027-250800-
NORTHEAST INDIANA

CITY           SKY/WX    TMP DP  RH WIND       PRES   REMARKS
FORT WAYNE     CLEAR     55  49  80 SW9       30.07F
KENDALLVILLE + CLEAR     56  50  79 SW6       30.05F

$$

INZ028-029-035-036-043>045-051>053-250800-
WEST CENTRAL INDIANA

CITY           SKY/WX    TMP DP  RH WIND       PRES   REMARKS
LAFAYETTE      PTCLDY    53  51  93 W3        30.09F
TERRE HAUTE    CLEAR     57  51  80 SW3       30.13S

$$

INZ030>032-037>040-046>048-054>057-064-065-250800-
CENTRAL INDIANA

CITY           SKY/WX    TMP DP  RH WIND       PRES   REMARKS
GREENWOOD *+   CLEAR     56  51  82 W3        30.13F
INDIANAPOLIS   CLEAR     56  50  80 SW6       30.11F
-EAGLE CREEK   CLEAR     58  47  66 CALM      30.10F
KOKOMO +       CLEAR     57  48  72 SW7       30.09F
MT COMFORT *+  CLEAR     55  48  76 W5        30.12F
SHELBYVILLE    CLEAR     58  50  75 W3        30.11F

$$

INZ033-034-041-042-049-050-058-059-250800-
EAST CENTRAL INDIANA

CITY           SKY/WX    TMP DP  RH WIND       PRES   REMARKS
MUNCIE         CLEAR     60  48  64 W7        30.10S
RICHMOND +     PTCLDY    54  48  82 SW3       30.11F

$$

INZ060-061-067>069-081>083-085>088-250800-
SOUTHWEST INDIANA

CITY           SKY/WX    TMP DP  RH WIND       PRES   REMARKS
EVANSVILLE     PTCLDY    59  53  80 S3        30.16S
HUNTINGBURG *+ PTCLDY    58  54  86 S6        30.15S

$$

INZ062-063-066-070>080-084-089>092-250800-
SOUTH CENTRAL AND SOUTHEAST INDIANA

CITY           SKY/WX    TMP DP  RH WIND       PRES   REMARKS
BLOOMINGTON    PTCLDY    55  50  83 CALM      30.13F
MADISON *+     CLEAR     57  54  88 CALM      30.15S
SEYMOUR +      CLEAR     59  54  82 W3        30.12F

$$





USA.gov is the U.S. government's official web portal to all federal, state and local government web resources and services.